Back to catalog

XINGWANG JISHU SW 01-01

AliveCommunicationsPO
NORAD 57288·PAYLOAD·🇨🇳 China
This satellite name has not been confirmed by official sources yet.

Launched Jul 9, 2023 from Jiuquan Satellite Launch Center

Loading…

Next Passes (next 24 hours)

TLE

FreshSource: Space-Track

Epoch: Sep 14, 2026, 14:12 UTC

1 57288U 23095A   26257.59229829  .00000053  00000-0  69495-4 0  9992
2 57288  86.5073 333.8505 0016006 304.3359  55.6269 13.39547090155722

Track XINGWANG JISHU SW 01-01 in real time with AllMySat

Download on the App Store